Regional Weather Roundup
Issued by NWS Sterling, VA

Home | Current Version | Previous Version | Graphics & Text | Print | Product List | Glossary On
Versions: 1 2 3 4 5 6 7 8 9 10 11 12 13 14 15 16 17 18 19 20 21 22 23 24 25 26 27 28 29 30 31 32 33 34 35 36 37 38 39 40 41 42 43 44 45 46 47 48 49 50
000
ASUS41 KLWX 051710
RWRLWX

REGIONAL WEATHER ROUNDUP
NATIONAL WEATHER SERVICE BALTIMORE MD/WASHINGTON DC
100 PM EDT SUN JUL 05 2015

Note: "FAIR" indicates few or no clouds below 12,000 feet
with no significant weather and/or obstructions to visibility.
 TC=TEMPERATURE CELSIUS

 * =Non NWS site. Station does not report precipitation (e.g. rain,
    snow, etc.), thunder, or fog.

DCZ001-MDZ009-015-VAZ040>042-051-053>054-051800-
WASHINGTON METRO

CITY           SKY/WX    TMP DP  RH WIND       PRES   REMARKS
WASHINGTON NAT MOSUNNY   81  69  67 CALM      30.15S
DULLES         PTSUNNY   78  69  73 VRB3      30.16S
ANDREWS AFB    PTSUNNY   79  75  89 S5        30.15S
FT BELVOIR     MOSUNNY   80  69  69 VRB1      30.15S
QUANTICO       PTSUNNY   78  70  76 S6        30.16S
COLLEGE PARK*  PTSUNNY   79  68  69 CALM      30.15S
LEESBURG*      PTSUNNY   77  70  78 S7        30.17F
MANASSAS*      CLOUDY    79  70  73 CALM      30.16
GAITHERSBURG*  MOSUNNY   79  68  69 CALM      30.20S

$$

MDZ006>007-011-014-051800-
BALTIMORE METRO

CITY           SKY/WX    TMP DP  RH WIND       PRES   REMARKS
BWI AIRPORT    PTSUNNY   79  66  64 CALM      30.15S
MD SCIENCE CTR   N/A     78  66  66 MISG      30.16S
MARTIN STATE   PTSUNNY   79  70  73 E6        30.17S
ANNAPOLIS      SUNNY     76  68  76 SE8       30.15S
FORT MEADE*    MOSUNNY   77  66  69 CALM      30.17S

$$

MDZ012-015-019>023-051800-
MARYLAND EASTERN SHORE

CITY           SKY/WX    TMP DP  RH WIND       PRES   REMARKS
OCEAN CITY     SUNNY     77  69  76 SE6       30.15F
SALISBURY      PTSUNNY   80  68  66 E3        30.14F
BAY BRIDGE AP*   N/A     75  66  73 W3        30.15S
CAMBRIDGE*     MOSUNNY   79  64  61 SE3       30.15S
EASTON*        MOSUNNY   82  68  61 NE6       30.18F

$$

MDZ017>025-051800-
SOUTHERN MARYLAND

CITY           SKY/WX    TMP DP  RH WIND       PRES   REMARKS
PATUXENT RIVER PTSUNNY   78  68  71 SE6       30.15S
ST INIGOES     NOT AVBL
LEONARDTOWN*   CLOUDY    77  68  73 E5        30.17S

$$

MDZ003>005-051800-
NORTH CENTRAL MARYLAND

CITY           SKY/WX    TMP DP  RH WIND       PRES   REMARKS
FREDERICK*     SUNNY     79  72  78 CALM      30.18S
HAGERSTOWN APT SUNNY     79  65  62 VRB3      30.16S
WESTMINSTER*   MOSUNNY   77  72  83 CALM      30.17S

$$

MDZ501>502-051800-
WESTERN MARYLAND

CITY           SKY/WX    TMP DP  RH WIND       PRES   REMARKS
OAKLAND*       MOSUNNY   73  73 100 S3        30.23S
CUMBERLAND*    MOSUNNY   79  66  65 SE3       30.19S

$$

VAZ025>031-051800-
SHENANDOAH VALLEY

CITY           SKY/WX    TMP DP  RH WIND       PRES   REMARKS
WINCHESTER*    MOSUNNY   79  68  69 SE3       30.17S
FRONT ROYAL*   PTSUNNY   77  70  78 NE5       30.15S
LURAY*         CLOUDY    81  72  74 CALM      30.16S
NEW MARKET*    PTSUNNY   78  69  73 CALM      30.13F
STAUNTON*      CLOUDY    78  68  70 SE3       30.19S
WAYNESBORO*    CLOUDY    75  67  77 E7        30.18F

$$

WVZ021-048>050-054>055-051800-
EASTERN WEST VIRGINIA PANHANDLE

CITY           SKY/WX    TMP DP  RH WIND       PRES   REMARKS
MARTINSBURG    MOSUNNY   77  66  68 VRB3      30.17S
PETERSBURG*    MOSUNNY   81  63  54 CALM      30.15F

$$

VAZ036>039-050-051800-
CENTRAL FOOTHILLS

CITY           SKY/WX    TMP DP  RH WIND       PRES   REMARKS
CHARLOTTESVILL CLOUDY    75  68  78 NE6       30.17S
CULPEPER*      CLOUDY    74  69  83 CALM      30.17S
ORANGE*        CLOUDY    72  70  94 CALM      30.18S FOG
GORDONSVILLE*  CLOUDY    73  70  88 NE6       30.16S
WARRENTON*     CLOUDY    76  71  86 CALM      30.16F

$$

VAZ055>057-051800-
NORTH AND CENTRAL PIEDMONT

CITY           SKY/WX    TMP DP  RH WIND       PRES   REMARKS
FREDERICKSBRG* CLOUDY    81  71  71 E6        30.14F
STAFFORD*      CLOUDY    77  68  73 SE3       30.19F

$$

NCZ024-NYZ072-PAZ021-071-VAZ022-071-051800-
OTHER REGIONAL OBSERVATIONS

CITY           SKY/WX    TMP DP  RH WIND       PRES   REMARKS
NEW YORK CITY  MOSUNNY   80  63  55 MISG      30.15S
PHILADELPHIA   MOSUNNY   80  62  54 S7        30.14F
PITTSBURGH     CLOUDY    76  57  51 E6        30.15F
ROANOKE        CLOUDY    76  68  76 SE8       30.16F
RICHMOND       CLOUDY    83  71  67 E9        30.14F
RALEIGH        PTSUNNY   86  71  60 SW6       30.12S HX  91

$$

ANZ530>537-051800-
MARINE OBSERVATIONS

STATION/POSITION TIME  TEMP    WIND        PRES
                       AIR SEA DIR/SP/G
                 (UTC) (F)     (DEG/KT/KT) (MB)
THOMAS PT LIGHT  NOT AVBL
BALT KEY BRIDGE  1600   73     130/  7/  8 1020.9F
COVE POINT       1600   76     160/  3/  3 1021.7F
LEWISETTA        1600   76 80  110/  6/  7 1020.8S
SOLOMONS ISLAND  1600      79                N/A
PINEY POINT      1600          180/  7/  7   N/A

$$



USA.gov is the U.S. government's official web portal to all federal, state and local government web resources and services.